Weather Roundup
Issued by NWS Springfield, MO

Home | Current Version | Previous Version | Text Only | Print | Product List | Glossary On
Versions: 1 2 3 4 5 6 7 8 9 10 11 12 13 14 15 16 17 18 19 20 21 22 23 24 25 26 27 28 29 30 31 32 33 34 35 36 37 38 39 40 41 42 43 44 45 46 47 48 49 50
000
NZUS99 KSGF 291357
HRRSGF

HOURLY WEATHER
NATIONAL WEATHER SERVICE SPRINGFIELD MO
900 AM CDT FRI APR 29 2016

......SGF CWA......

CITY           SKY/WX    TMP DP  RH WIND       PRES   REMARKS
SPRINGFIELD    LGT RAIN  53  47  79 NE9       29.97S
JOPLIN         LGT RAIN  52  48  86 E10       29.95F
WEST PLAINS    CLOUDY    54  46  74 NE9       30.01F
ROLLA          CLOUDY    51  47  86 E8        30.01F
BRANSON        TSTM      54  50  87 E7        30.02R

......SURROUNDING SGF CWA......

CITY           SKY/WX    TMP DP  RH WIND       PRES   REMARKS
CHANUTE        CLOUDY    53  45  74 E13G24    29.95F
PARSONS        CLOUDY    54  48  80 E13G23    29.93F
COFFEYVILLE    CLOUDY    54  48  80 E16G25    29.90F
EMPORIA        CLOUDY    49  43  80 NE18G29   29.99F
ROGERS AR      RAIN      54  52  94 E14       29.97F
HARRISON AR    HVY RAIN  53  50  89 E5        30.02R FOG

......KANSAS AND MISSOURI......

CITY           SKY/WX    TMP DP  RH WIND       PRES   REMARKS
KANSAS CTY INT CLOUDY    49  43  80 NE10      30.06R
SEDALIA        CLOUDY    52  47  83 E8        30.06S
ST JOSEPH      CLOUDY    48  42  80 NE14      30.07F
ST LOUIS       CLOUDY    57  48  72 NE7       30.05F
WICHITA        LGT RAIN  50  46  86 NE21G32   29.98F
TOPEKA         CLOUDY    49  41  74 NE13G21   30.06R
OLATHE         PTSUNNY   50  43  77 E10       30.05R

......TENNESSEE......

CITY           SKY/WX    TMP DP  RH WIND       PRES   REMARKS
MEMPHIS        NOT AVBL
NASHVILLE      PTSUNNY   70  55  59 CALM      30.03F

......ARKANSAS.......

CITY           SKY/WX    TMP DP  RH WIND       PRES   REMARKS
FAYETTEVILLE   HVY RAIN  53  53 100 E10       29.93F FOG
FT SMITH       LGT RAIN  60  55  83 NE18G25   29.86S
LITTLE ROCK    TSTM      62  60  93 N10G36    29.92R

......OKLAHOMA.......

CITY           SKY/WX    TMP DP  RH WIND       PRES   REMARKS
TULSA          CLOUDY    58  55  90 NE9       29.82F
PONCA CITY     LGT RAIN  53  49  86 N12       29.91R
MCALESTER      CLOUDY    62  59  90 E8        29.83R
OKLAHOMA CITY  CLOUDY    58  56  93 E9        29.79F

......IOWA............

CITY           SKY/WX    TMP DP  RH WIND       PRES   REMARKS
DES MOINES     NOT AVBL
QUAD CITIES    CLOUDY    46  40  79 N9        30.07S

......ILLINOIS........

CITY           SKY/WX    TMP DP  RH WIND       PRES   REMARKS
QUINCY         NOT AVBL
CHICAGO        CLOUDY    43  39  86 N12       30.06F




USA.gov is the U.S. government's official web portal to all federal, state and local government web resources and services.